sat.trackr.live / text

‹ back to catalog

STARLINK-3604

NORAD 51815 · 2022-017AZ

PAYLOAD ACTIVE UNKNOWN

§ Identity

Operator
Country
US
Launch date
2022-02-25
Launch site
AFWTR
Launch vehicle
Mass (kg)
RCS (m²)

Purposes: comms

External: N2YO · Heavens-Above · Gunter

§ Orbital elements

Epoch: 2026-09-19T10:36:58.236480Z

Period
94.01 min
Inclination
53.1600°
Eccentricity
0.0001246
Mean motion
15.31689571 rev/d
Perigee alt
469.9 km
Apogee alt
471.6 km
Semi-major
6,848.9 km
B*
1.0902e-4
RAAN
165.2671°
Arg perigee
93.3704°
Mean anomaly
266.7440°
Rev number
25,352

§ Raw data

STARLINK-36041 51815U 22017AZ  26262.44234070  .00003018  00000+0  10902-3 0  99902 51815  53.1600 165.2671 0001246  93.3704 266.7440 15.31689571253526

JSON: /api/v1/satellites/51815 · /tle

For live sub-satellite position, see the globe view (requires WebGL).

§ Visibility from observer

Set your observer location to see the next 7 days of passes ≥ 10°. The values pass through the URL so the page stays shareable.

No JS? Fill the form by hand. The geolocation button needs JavaScript.